Vail, USA 16 day weather forecast

Slopes altitude range 2475 m - 3525m

Number of lifts: 25 Pistes: 193km

In some cases the lift and piste totals shown are for the ski domain (e.g. Three Valleys) rather than individual resort (e.g. Courchevel)

Overview

The 16 day weather forecast is fully updated 4 times every day.

    • Thu 21 FEB 2019
    • Thu 21
    • -18C -9C
    • Fri 22 FEB 2019
    • Fri 22
    • -15C -12C
    • Sat 23 FEB 2019
    • Sat 23
    • -18C -13C
    • Sun 24 FEB 2019
    • Sun 24
    • -22C -21C
    • Mon 25 FEB 2019
    • Mon 25
    • -18C -16C
    • Tue 26 FEB 2019
    • Tue 26
    • -14C -13C
    • Wed 27 FEB 2019
    • Wed 27
    • -12C -11C
    • Thu 28 FEB 2019
    • Thu 28
    • -11C -11C
    • Fri 01 MAR 2019
    • Fri 01
    • -6C 0C
    • Sat 02 MAR 2019
    • Sat 02
    • -2C -1C
    • Sun 03 MAR 2019
    • Sun 03
    • -8C -4C
    • Mon 04 MAR 2019
    • Mon 04
    • -5C -2C
    • Tue 05 MAR 2019
    • Tue 05
    • -4C 1C
    • Wed 06 MAR 2019
    • Wed 06
    • -8C -2C
    • Thu 07 MAR 2019
    • Thu 07
    • -7C -1C
    • Fri 08 MAR 2019
    • Fri 08
    • -7C 1C

Date:

Time Type 0°C level Temp Chill Snow Cloud Speed Gust Dir Press
18:00 1863m -9°C -9_3 1cm 99% 3mph 5mph 1008mB
21:00 1912m -9°C -9_5 2cm 100% 5mph 8mph 1006mB
0:00 1795m -9°C -9_3 3cm 100% 3mph 5mph 1007mB
3:00 969m -15°C -15_7 0cm 97% 7mph 8mph 1012mB
6:00 1229m -15°C -15_6 0cm 98% 6mph 8mph 1012mB
9:00 1199m -13°C -13_7 1cm 100% 7mph 10mph 1011mB
12:00 1213m -12°C -12_5 1cm 99% 5mph 6mph 1010mB
15:00 1402m -12°C -12_4 1cm 100% 4mph 5mph 1010mB
18:00 1952m -8°C -8_2 2cm 100% 2mph 2mph 1006mB
21:00 2078m -8°C -8_5 2cm 100% 5mph 7mph 1004mB
0:00 1881m -9°C -9_6 3cm 100% 6mph 9mph 1007mB
3:00 1536m -11°C -11_6 3cm 100% 6mph 11mph 1012mB
6:00 1142m -13°C -13_5 5cm 100% 5mph 8mph 1015mB
9:00 884m -15°C -15_3 1cm 100% 3mph 4mph 1019mB
12:00 478m -13°C -13_3 1cm 100% 3mph 4mph 1023mB
15:00 174m -18°C -18_4 1cm 95% 4mph 5mph 1026mB
18:00 1208m -13°C -13_6 0cm 63% 6mph 10mph 1022mB
21:00 1500m -13°C -13_8 1cm 76% 8mph 14mph 1019mB
0:00 1251m -13°C -13_8 1cm 88% 8mph 20mph 1022mB
3:00 302m -19°C -19_6 1cm 97% 6mph 7mph 1029mB
6:00 0m -21°C -21_7 1cm 96% 7mph 7mph 1032mB
9:00 0m -22°C -22_7 0cm 89% 7mph 7mph 1034mB
12:00 0m -21°C -21_6 0cm 89% 6mph 7mph 1034mB
15:00 536m -17°C -17_5 0cm 86% 5mph 5mph 1033mB
18:00 1910m -8°C -8_6 0cm 44% 6mph 13mph 1024mB
21:00 2197m -9°C -9_6 0cm 66% 6mph 15mph 1020mB
0:00 1980m -9°C -9_4 0cm 55% 4mph 6mph 1020mB
3:00 893m -15°C -15_6 0cm 26% 6mph 7mph 1026mB
6:00 647m -16°C -16_7 0cm 21% 7mph 7mph 1027mB
9:00 492m -17°C -17_6 0cm 0% 6mph 7mph 1028mB
12:00 482m -16°C -16_6 0cm 1% 6mph 7mph 1028mB
15:00 1141m -13°C -13_6 0cm 39% 6mph 6mph 1025mB
18:00 2418m -5°C -5_6 0cm 34% 6mph 17mph 1017mB
21:00 2605m -5°C -5_7 0cm 29% 7mph 21mph 1014mB
0:00 2354m -5°C -5_4 0cm 19% 4mph 8mph 1015mB
3:00 1259m -12°C -12_6 0cm 2% 6mph 7mph 1021mB
6:00 1094m -14°C -14_6 0cm 1% 6mph 7mph 1024mB
9:00 1014m -14°C -14_6 0cm 0% 6mph 7mph 1024mB
12:00 991m -13°C -13_6 0cm 0% 6mph 7mph 1025mB
15:00 1601m -10°C -10_6 0cm 0% 6mph 8mph 1024mB
18:00 2692m -3°C -3_6 0cm 0% 6mph 14mph 1018mB
21:00 2833m -3°C -3_6 0cm 0% 6mph 14mph 1016mB
0:00 2700m -3°C -3_4 0cm 3% 4mph 6mph 1016mB
3:00 1657m -10°C -10_5 0cm 9% 5mph 6mph 1021mB
6:00 1492m -11°C -11_6 0cm 5% 6mph 7mph 1023mB
9:00 1368m -12°C -12_6 0cm 0% 6mph 7mph 1024mB
12:00 1295m -11°C -11_6 0cm 7% 6mph 7mph 1024mB
15:00 1844m -9°C -9_5 0cm 17% 5mph 6mph 1023mB
18:00 2803m -2°C -2_6 0cm 12% 6mph 15mph 1018mB
21:00 2906m -2°C -2_6 0cm 11% 6mph 14mph 1016mB
0:00 2727m -3°C -3_5 0cm 27% 5mph 12mph 1016mB
3:00 1728m -9°C -9_5 0cm 2% 5mph 7mph 1020mB
6:00 1520m -11°C -11_6 0cm 10% 6mph 7mph 1021mB
9:00 1433m -11°C -11_6 0cm 34% 6mph 7mph 1020mB
12:00 1450m -11°C -11_6 0cm 49% 6mph 7mph 1019mB
15:00 1967m -8°C -8_6 1cm 94% 6mph 9mph 1017mB
18:00 2685m -3°C -3_9 1cm 95% 9mph 24mph 1013mB
21:00 2817m -3°C -3_10 1cm 98% 10mph 29mph 1010mB
0:00 2566m -4°C -4_8 1cm 99% 8mph 35mph 1009mB
3:00 2223m -3°C -3_11 0cm 63% 11mph 46mph 1005mB
6:00 2713m -3°C -3_29 1cm 79% 29mph 62mph 1006mB
9:00 2292m -3°C -3_21 1cm 100% 21mph 46mph 1014mB
12:00 1835m 0°C 0_8 1cm 100% 8mph 32mph 1019mB
15:00 1996m -5°C -5_9 0cm 75% 9mph 30mph 1020mB
18:00 2688m 0°C 0_18 0cm 66% 18mph 36mph 1016mB
21:00 2768m 0°C 0_12 1cm 77% 12mph 34mph 1012mB
0:00 2898m 0°C 0_12 1cm 75% 12mph 37mph 1011mB
3:00 2309m -2°C -2_6 0cm 14% 6mph 25mph 1013mB
6:00 2358m -3°C -3_4 0cm 36% 4mph 19mph 1012mB
9:00 2389m -3°C -3_5 1cm 91% 5mph 40mph 1009mB
12:00 2505m -1°C -1_6 1cm 93% 6mph 41mph 1007mB
15:00 2778m 0°C 0_10 1cm 93% 10mph 44mph 1006mB
18:00 2978m 3°C 3_25 1cm 91% 25mph 61mph 1002mB
21:00 2878m 2°C 2_23 1cm 97% 23mph 48mph 1002mB
0:00 2685m 0°C 0_25 3cm 95% 25mph 47mph 1004mB
3:00 2149m -4°C -4_6 2cm 96% 6mph 24mph 1012mB
6:00 2009m -4°C -4_3 2cm 78% 3mph 11mph 1018mB
9:00 1923m -5°C -5_3 1cm 78% 3mph 7mph 1020mB
12:00 1470m -4°C -4_5 1cm 51% 5mph 8mph 1020mB
Morning 0.046875mm 0.125 2655m -9°C -9_13 1cm 42% 13mph 31mph 1013mB
Afternoon 0.046875mm 0.125 2148m -2°C -2_11 1cm 47% 11mph 26mph 1020mB
Morning 0.00520833mm 0.0625 3045m -6°C -6_7 0cm 17% 7mph 17mph 1015mB
Afternoon 0mm 0 2486m 1°C 1_8 0cm 83% 8mph 20mph 1014mB
Morning 0.104167mm 0.3125 2727m -3°C -3_10 2cm 90% 10mph 18mph 1012mB
Afternoon 0.03125mm 0 1764m -2°C -2_8 0cm 71% 8mph 16mph 1022mB
Morning 0mm 0 2786m -8°C -8_4 0cm 5% 4mph 7mph 1020mB
Afternoon 0mm 0 1913m -1°C -1_6 0cm 49% 6mph 7mph 1020mB
Morning 0mm 0 3112m -6°C -6_10 0cm 64% 10mph 30mph 1007mB
Afternoon 0.25mm 0.5 1783m 1°C 1_16 4cm 89% 16mph 35mph 1017mB
Morning 0.0104167mm 0.0625 2447m -9°C -9_9 0cm 22% 9mph 17mph 1014mB
Afternoon 0.00520833mm 0 1987m -3°C -3_7 0cm 93% 7mph 15mph 1010mB

16 day outlook at a glance

Forecast issued: 21/02/2019 17:49:41

Chat

Your comments and questions. In a resort? Let us know what it's like!


Characters left 250

For terms and conditions see Readers Comments on the Cookie and privacy policy page.